Terug naar catalogus

STARLINK-37344

ActiefCommunicatieSSO
NORAD 68744·PAYLOAD·🇺🇸 United States

Gelanceerd Apr 15, 2026 vanaf Vandenberg Space Force Base

Loading…

Volgende Passages (komende 24 uur)

TLE

VersSource: CelesTrak SupGP

Epoch: Sep 15, 2026, 03:20 UTC

1 68744C 26082S   26258.13937500  .00076562  00000+0  23773-2 0  2585
2 68744  97.2844 120.3892 0001655  89.5316 337.3916 15.33391429    12

Volg STARLINK-37344 in realtime met AllMySat

Download on the App Store